Torna al catalogo

ET-001D

AttivoSSO
NORAD 100100·PAYLOAD·🇺🇸 United States

Lanciato Jul 7, 2026 da Vandenberg Space Force Base

Loading…

Prossimi Passaggi (prossime 24 ore)

TLE

AggiornatoSource: Space-Track

Epoca: Sep 14, 2026, 12:57 UTC

1 A0100U 26156CC  26257.54010544  .00005462  00000-0  53652-3 0  9997
2 A0100  97.7427 156.8698 0006347 289.4417  70.6116 14.92554096 10329

Traccia ET-001D in tempo reale con AllMySat

Download on the App Store